Aeroporto :
LOGIN :

Iscrizione | Disclaimer

   EN    FR    IT 

 










Sommario :    VFR   VFR Marginale   IFR   IFR Intensivo   IFR Molto Intensivo
Visibilità : 
Base nubi : 
>= 8 km
>= 3000ft
5 / 8 km
1000 / 3000 ft
1500m / 5 km
500 / 1000 ft
800 / 1500m
200 / 500 ft
< 800m
< 200 ft
Simboli :   Temporali  Nebbia  Neve Forte  Precipitazioni Forti  Vento > 20 kt
SIGMETs :   Varie  Temporali  Ghiacco  Turbolenza  Onda orograficha  Ceneri Vulcaniche






- Altitudine del aeroporto : 1989 ft
- Codice IATA : KLV


LKKV - Karlovy Vary

ULTIMO METAR :
  • 252300Z 28004KT 9999 SCT018 BKN023 08/07 Q1032

METARs OBSOLETI :
  • 252200Z 28003KT 240V300 9999 BKN016 08/07 Q1032
  • 252100Z 29004KT 9999 -SHRA SCT020 OVC040 08/07 Q1032

TAF TAF LKKV
Valido dal 26 a 00 ore il 27 a 06 ore UTC


252300Z 2600/2706 30004KT 9999 BKN027
PROB30
TEMPO 2600/2605 VRB02KT 2500 BR BKN004
PROB30
TEMPO 2610/2618 36014KT 8000 -SHRA BKN014
BECMG 2618/2620 VRB02KT CAVOK



MetMap, La meteo Aeronautica in un colpo d'occhio ! - Copyright ORBIFLY Dicembre 2007 - Disclaimer

ORBIFLY MET'MAP TEAM :

Programmazione e sviluppo : Alexandra Zaïnal
Concezione : Baudouin d'Aumeries
Aiuto per la programmazione : Marc-Olivier Méhu
Supporto tecnico e logistico : Manuel Goepfert
Aiuto per la traduzione : Arnaldo La Scala

Contatto : metmap@orbifly.com




FONTI E CREDITI :

   NOAA